Home > Weather > Frankfort > Past weeks

Flag for USA Past Weather in Frankfort, Kentucky, USA — Yesterday and Last 2 Weeks

Now
67 °F

Clear.


Feels Like: 67 °F
Forecast: 65 / 85 °F
Wind: No wind

Location: Capital City Airport

Current Time: May 30, 2016 at 4:55:33 AM

Latest Report: May 30, 2016 at 3:53 AM


Visibility: 10 mi

Pressure: 30.01 "Hg

Humidity: 85%

Dew Point: 62 °F

Location of FrankfortLocation

Past Weather in Frankfort — Graph

°F

Frankfort Temperature Yesterday

Maximum temperature yesterday: 86 °F (at 2:53 PM)
Minimum temperature yesterday: 67 °F (at 12:53 AM)
Average temperature yesterday: 76 °F

High & Low Weather Summary for the Past Weeks

 TemperatureHumidityPressure
High86 °F (May 27, 3:53 PM)93% (May 21, 1:00 AM)30.28 "Hg (May 21, 1:00 AM)
Low37 °F (May 16, 4:53 AM)25% (May 24, 3:53 PM)29.91 "Hg (May 22, 7:53 PM)
Average63 °F69%30.07 "Hg
* Reported May 15 3:53 AM — May 30 3:53 AM, Frankfort, Weather by CustomWeather, © 2016

Note: Actual official high and low records may vary slightly from our data, if they occured in-between our weather recording intervals... More about our weather records

Advertising

Frankfort Weather History for the Previous 24 Hours

Scroll right to see more
 ConditionsComfort  
Time TempWeatherWind HumidityBarometerVisibility
3:53 AM
Mon, May 30
67 °FClear.No wind85%30.01 "Hg10 mi
2:53 AM65 °FClear.No wind87%30.00 "Hg10 mi
1:53 AM69 °FClear.No wind79%30.00 "Hg10 mi
12:53 AM72 °FClear.3 mph71%29.99 "Hg10 mi
11:53 PM
Sun, May 29
71 °FClear.3 mph78%30.00 "Hg10 mi
10:53 PM73 °FClear.No wind74%30.00 "Hg10 mi
9:53 PM76 °FSunny.No wind69%29.98 "Hg10 mi
8:53 PM78 °FPassing clouds.3 mph66%29.98 "Hg10 mi
7:53 PM82 °FSunny.No wind56%29.98 "Hg10 mi
6:53 PM84 °FSunny.8 mph51%29.99 "Hg10 mi
5:53 PM86 °FSunny.8 mph46%29.99 "Hg10 mi
4:53 PM85 °FScattered clouds.8 mph50%30.01 "Hg10 mi
3:53 PM84 °FPassing clouds.10 mph49%30.03 "Hg10 mi
2:53 PM86 °FSunny.10 mph48%30.05 "Hg10 mi
1:53 PM85 °FScattered clouds.6 mph51%30.07 "Hg10 mi
12:53 PM83 °FScattered clouds.5 mph53%30.08 "Hg10 mi
11:53 AM81 °FSunny.7 mph60%30.09 "Hg10 mi
10:53 AM79 °FSunny.5 mph65%30.11 "Hg10 mi
9:53 AM75 °FSunny.5 mph71%30.11 "Hg10 mi
8:53 AM70 °FPassing clouds.5 mph76%30.11 "Hg10 mi
7:53 AM67 °FOvercast.No wind87%30.10 "Hg10 mi
6:53 AM68 °FClear.No wind82%30.08 "Hg10 mi
5:53 AM67 °FMostly cloudy.No wind85%30.07 "Hg10 mi
4:53 AM67 °FOvercast.No wind85%30.07 "Hg10 mi
Weather by CustomWeather, © 2016

See weather overviewHow to use our weather pages